Weather in Bokovo-Khrustalne

Ukraine / Luhansk Region     48°09′37″N   38°50′19″E
temp.,
°C
wind,
m/s
gust,
m/s
humid.,
%
clouds,
%
prec.,
mm/h
press.,
hPa
HPBL,
m
22 april, thu
thu2200:00+8ssw499093 0.4 1020264
03:00+7ssw389317 0.4 1020185
06:00+6ssw35945 0.0 1021122
09:00+12ssw44705 0.0 1022588
12:00+15ssw445544 0.8 10221506
15:00+16wsw234581 2.6 10212050
18:00+14wsw1257100 0.8 1021445
21:00+10sw227597 0.8 102223
23 april, fri
fri2300:00+9wsw227878 0.0 102216
03:00+8sw22827 0.0 102215
06:00+7sw23855 0.0 102261
09:00+12sw45655 0.0 1022588
12:00+15sw554930 0.3 10201860
15:00+17ssw5741100 0.6 10192376
18:00+14ssw685919 0.0 1018926
21:00+9ssw51074100 0.0 1018298
24 april, sat
sat2400:00+9ssw51172100 0.0 1017375
03:00+8ssw41079100 0.0 1016354
06:00+7ssw5118923 0.0 1015389
09:00+11wsw71075100 0.4 10141279
12:00+8wnw687161 0.6 10161119
15:00+12w81137100 0.6 10152457
18:00+11w7104460 0.0 10161835
21:00+6wnw712727 0.0 1019912
25 april, sun
sun2500:00+4w510600 0.0 1020505
03:00+3wnw6126814 0.0 1020567
06:00+2w497513 0.0 1022384
09:00+7wnw56516 0.0 10221190
12:00+10wnw453978 0.0 10212051
15:00+11wnw3435100 0.0 10202167
18:00+11nw2238100 0.0 10201926
21:00+8e1146100 0.0 102010
26 april, mon
mon2600:00+6ssw2261100 0.0 102030
03:00+5sw1166100 0.0 101911
06:00+5ssw1165100 0.0 101813
09:00+10sw344887 0.0 1017676
12:00+13sw564017 0.0 10162027
15:00+12wsw7846100 0.0 10151883
18:00+8wnw696674 0.3 10161088
21:00+5wnw23640 0.3 101760